GFSGBSN_250_rhum_132.txt.gz
RH
33 25 22 25 24 30 22 18 16 16 13 8 4 4 3 2 1 1 1 2 2 3 4 4 4 4 4 6 9 10 10 12 17 32 62 96 94 100 100 99 97 96 99 100 100 96 100
35 26 24 22 27 32 30 20 19 18 14 9 4 5 3 2 1 1 1 1 1 2 4 5 4 5 6 5 8 11 11 12 13 27 37 71 97 95 100 100 100 99 100 100 100 100 100
33 28 25 21 29 37 40 24 22 19 15 11 5 6 4 2 2 2 2 1 2 2 3 5 5 5 6 5 6 12 13 13 13 22 31 40 68 86 86 94 87 99 97 99 90 97 99
34 29 25 23 31 50 42 28 24 20 16 11 5 6 4 2 2 2 2 2 2 2 2 4 5 5 5 5 5 10 14 13 14 18 23 27 26 61 82 96 85 83 89 87 90 98 100
35 29 25 26 33 44 43 38 26 21 18 10 6 6 3 2 2 2 2 2 2 2 2 3 6 6 6 5 5 8 14 14 14 16 20 20 24 27 65 87 89 67 62 66 64 81 100
33 28 27 26 32 40 55 47 32 21 19 11 7 6 3 2 2 2 2 2 2 2 2 3 6 7 6 6 6 6 13 16 14 16 16 21 22 25 29 57 72 66 61 48 44 46 48
33 28 30 28 31 41 63 42 41 23 21 14 7 6 4 3 2 2 2 2 2 2 2 3 5 7 8 7 7 6 10 17 16 16 18 17 18 20 22 37 55 57 49 42 38 32 30
32 32 31 29 31 44 75 52 43 28 22 17 7 7 4 4 3 3 3 2 2 3 3 3 4 9 11 10 7 7 7 14 18 16 17 18 18 17 20 22 40 47 43 35 33 29 24
31 37 33 29 39 42 80 69 52 37 22 22 10 8 5 5 5 4 5 3 2 3 3 3 4 9 11 12 12 10 10 8 13 15 15 16 17 18 20 20 28 38 38 36 32 28 23
32 38 39 32 47 40 75 82 64 46 26 23 17 11 7 7 8 8 9 11 6 4 4 4 4 11 17 16 15 15 12 9 8 15 16 17 15 17 19 21 22 29 35 33 30 27 25
36 41 46 37 47 44 51 90 73 59 32 22 23 17 11 9 13 13 16 21 31 25 9 6 8 14 21 23 23 20 16 14 13 17 20 22 18 17 18 22 22 27 34 32 30 28 27
39 46 51 40 51 65 47 79 76 70 38 25 26 21 18 19 18 19 19 24 48 70 34 20 12 19 26 30 33 28 21 14 14 16 21 24 21 20 22 24 22 25 32 34 31 28 26
39 45 58 45 58 80 51 63 100 66 55 30 25 28 23 27 29 22 27 39 45 53 62 75 63 47 24 24 39 38 23 15 12 12 18 24 21 19 20 19 21 22 30 34 31 27 28
35 45 66 49 66 83 64 56 90 56 71 41 33 30 30 32 37 40 35 39 51 54 44 47 44 47 30 48 42 56 44 39 20 15 14 21 22 18 16 19 21 21 27 31 32 29 29
37 48 77 59 69 76 69 58 73 82 73 51 42 34 32 33 35 43 46 50 46 42 52 31 27 23 20 17 8 8 11 18 20 13 13 16 21 22 19 17 18 22 24 26 31 28 25
43 56 83 58 69 68 78 70 79 77 52 78 35 45 41 35 34 39 42 38 35 40 44 27 18 21 11 10 10 10 6 7 14 15 9 12 19 22 22 20 19 22 22 25 26 29 26
47 65 79 56 62 56 82 75 79 68 68 62 69 37 53 42 36 35 44 46 38 37 29 22 15 17 15 9 7 8 7 7 9 13 10 7 10 19 22 22 21 20 21 22 24 28 29
52 66 68 57 48 47 67 85 68 78 72 53 84 54 40 54 48 38 36 46 43 40 37 24 16 15 14 13 10 10 8 7 6 7 6 7 8 14 21 24 24 25 26 27 30 28 27
51 60 60 48 47 40 48 67 66 74 61 71 54 80 49 39 46 54 40 37 43 43 32 27 20 15 17 17 12 10 8 9 8 8 8 9 9 11 16 23 26 29 29 30 30 27 24
61 61 60 48 40 36 40 49 58 61 69 67 70 60 71 59 37 41 55 43 36 42 44 33 29 29 26 24 22 21 18 15 16 18 20 21 24 27 28 32 34 35 33 30 27 26 27
44 62 60 48 41 38 41 46 48 52 54 75 87 78 63 63 62 38 38 51 54 37 43 46 42 38 35 35 32 29 27 24 19 17 17 18 20 24 26 27 29 30 32 32 30 30 29
38 56 57 48 43 38 44 49 41 40 46 48 82 93 76 75 91 60 45 33 33 62 49 42 47 47 43 40 39 39 37 35 35 32 31 31 31 34 36 37 37 36 36 36 35 35 37
62 50 52 52 47 41 54 54 44 36 37 45 47 66 86 80 83 97 76 57 42 30 48 60 52 40 46 50 51 51 49 47 46 44 42 41 40 41 43 44 45 45 46 47 48 46 45
67 67 55 57 50 52 56 56 46 46 39 37 43 44 60 80 89 91 100 100 86 60 34 32 50 67 61 52 44 37 36 37 39 42 44 47 48 50 50 48 45 44 42 39 37 38 38
92 74 73 64 56 61 62 54 48 43 42 41 34 33 33 40 65 81 80 94 100 99 77 51 38 29 33 54 66 58 47 48 48 52 44 45 43 42 42 40 39 43 40 37 38 42 49
100 99 87 71 62 70 70 62 50 43 43 44 34 32 29 32 31 41 66 74 72 99 95 84 68 53 40 34 26 27 32 37 56 84 81 75 70 60 52 50 52 56 39 38 38 49 54
100 100 100 83 75 78 79 84 62 57 51 50 45 40 31 28 33 35 41 64 51 61 71 65 57 69 67 50 39 40 35 35 33 29 28 28 29 45 57 57 55 40 52 70 57 68 100
100 100 100 100 93 97 92 91 90 84 72 61 57 45 41 32 31 38 45 48 57 52 40 55 53 38 44 54 45 32 31 31 33 32 31 32 32 32 31 31 35 57 46 34 36 44 42
100 100 100 100 100 100 100 98 97 96 94 90 94 58 77 70 34 30 34 53 50 56 66 55 56 52 38 44 51 58 46 45 40 34 31 33 36 42 47 46 43 45 50 46 50 49 41

GFSGBSN_250_rhum_135.txt.gz
RH
30 30 35 23 20 20 22 22 23 21 13 14 9 4 4 4 2 2 1 1 1 1 2 3 3 3 4 4 6 7 8 8 11 11 12 12 24 61 86 99 81 75 86 80 85 100 100
24 32 35 20 20 21 22 23 25 20 15 14 7 4 4 3 2 2 1 1 1 1 2 2 4 4 4 4 4 7 7 9 11 12 12 14 15 45 93 97 90 97 98 86 85 100 100
22 35 28 21 23 24 25 29 31 22 15 13 6 4 3 2 2 2 2 1 1 1 1 2 4 4 4 5 5 6 8 10 11 12 13 19 16 18 60 90 96 97 99 90 99 100 100
25 32 28 23 23 28 29 34 36 24 16 15 5 4 3 2 2 2 2 2 2 1 2 2 3 5 4 4 6 6 8 11 13 12 12 16 19 19 30 72 97 97 94 93 85 91 100
27 31 30 24 25 32 30 41 41 29 18 17 6 5 3 3 2 2 2 2 2 2 2 2 2 5 5 4 6 7 8 11 13 13 12 13 18 22 22 59 97 100 97 91 91 99 100
31 35 32 25 26 32 35 44 52 36 21 19 10 7 4 4 3 2 2 2 2 2 2 2 3 4 6 5 6 7 7 10 11 14 12 13 15 22 24 46 72 98 97 87 89 98 100
38 38 34 29 29 33 46 46 62 43 23 22 12 7 7 4 4 3 3 3 2 2 2 2 3 5 5 6 6 7 7 10 13 14 14 13 15 20 30 40 54 71 94 100 100 99 91
40 40 33 33 33 40 55 50 68 53 27 21 19 12 11 10 6 5 5 3 3 2 2 3 4 7 8 7 7 8 8 9 14 14 14 14 15 18 24 35 47 50 72 88 91 92 89
40 42 35 37 38 42 58 60 75 58 37 25 25 20 18 16 16 9 7 8 6 4 3 3 5 8 8 8 9 9 10 10 12 15 17 16 16 18 21 30 38 40 48 64 76 87 86
44 43 36 38 44 44 60 75 63 64 42 26 26 31 28 25 21 15 11 15 16 9 4 5 7 10 10 10 11 11 12 12 12 16 20 20 18 18 18 27 37 38 37 36 48 61 79
45 47 38 41 54 49 63 83 51 60 44 32 25 30 31 30 32 28 22 21 21 30 20 9 12 15 12 12 14 14 14 11 11 16 20 21 19 20 19 26 36 38 35 34 31 37 52
47 47 39 42 62 52 61 87 60 61 55 39 29 31 35 33 30 29 34 32 30 21 16 30 19 19 18 15 14 16 18 15 15 15 18 21 21 22 23 26 34 36 35 31 31 31 34
53 46 39 46 70 53 62 86 82 70 66 45 35 32 37 40 40 34 34 23 35 36 20 16 35 34 20 19 18 16 17 19 20 18 18 22 21 20 23 22 29 31 29 29 30 28 28
51 43 40 54 65 60 60 87 88 68 76 58 42 32 35 43 51 44 29 22 19 28 33 15 13 27 25 26 26 20 15 14 16 15 20 24 21 21 20 23 23 25 27 27 27 30 29
47 44 44 62 54 61 58 83 96 75 74 63 51 41 35 39 45 44 38 27 25 17 20 29 15 8 16 24 23 20 22 24 23 22 18 19 22 20 20 20 22 24 23 21 24 32 30
52 42 48 63 50 53 57 74 99 85 73 78 63 45 38 38 44 43 37 30 26 22 15 14 15 13 7 5 11 15 16 14 12 11 12 11 16 20 18 18 18 20 21 21 22 34 33
76 37 53 54 46 44 52 56 89 94 72 81 69 59 43 44 40 43 44 39 29 20 14 12 13 18 15 15 8 4 9 16 14 10 10 11 12 15 18 19 19 19 20 18 20 28 36
61 40 54 46 40 38 40 43 67 98 91 82 77 72 56 44 47 42 43 44 41 34 22 14 11 12 14 16 13 8 6 9 12 11 9 8 10 14 18 20 21 21 20 20 23 31 31
60 38 52 50 38 34 34 42 51 73 85 97 79 77 76 57 42 52 43 46 44 42 37 33 26 20 16 14 13 11 11 10 12 12 8 8 10 11 17 19 21 23 22 20 20 23 25
96 48 55 47 40 34 34 38 44 54 64 91 78 78 93 77 68 39 54 44 51 48 46 41 39 37 30 21 15 11 11 12 15 16 13 9 10 16 18 22 24 26 26 25 24 23 22
85 63 61 49 45 38 32 40 39 38 47 58 76 74 76 100 82 63 38 61 49 49 52 51 46 44 41 40 34 28 20 15 12 11 11 12 13 15 20 22 23 24 25 25 24 23 26
80 81 54 59 55 39 35 43 42 35 36 36 54 72 74 84 100 95 68 35 52 61 55 42 46 47 46 44 40 37 34 32 32 30 29 24 17 18 21 26 29 30 30 30 30 30 30
83 89 80 46 58 43 38 44 44 42 36 34 33 40 54 64 80 100 100 78 41 49 57 62 40 37 39 42 44 43 40 38 35 32 30 30 32 34 35 36 35 34 36 36 36 36 36
84 80 96 68 57 55 44 46 47 42 39 34 29 27 29 34 49 68 100 100 83 59 37 48 57 54 48 49 42 36 38 42 44 45 45 46 46 47 46 45 45 46 48 49 51 51 48
98 78 88 96 72 65 53 52 50 46 42 36 30 28 26 27 31 41 50 77 100 86 85 55 41 50 51 52 56 54 54 58 56 46 39 38 40 41 40 40 41 39 38 38 39 41 46
87 98 91 90 95 72 60 60 53 50 44 39 35 31 27 28 28 32 36 43 47 77 71 68 80 66 52 44 48 52 52 43 54 59 57 67 64 64 65 57 54 58 60 55 55 55 64
74 93 100 82 88 90 72 66 68 62 50 45 44 42 33 26 31 30 36 43 39 29 34 44 50 66 59 72 58 42 42 42 42 42 38 43 41 37 40 57 55 52 43 40 35 35 29
74 82 97 100 86 100 90 84 78 76 62 58 52 51 43 34 27 32 32 31 38 44 43 48 40 35 36 36 33 31 36 37 34 34 32 33 32 35 30 33 28 28 32 33 37 34 33
95 68 78 99 100 88 100 100 99 95 91 83 67 71 75 52 36 29 28 28 26 41 55 58 63 72 55 67 76 73 73 50 51 43 41 48 72 91 82 72 68 60 61 50 44 47 51

GFSGBSN_250_rhum_138.txt.gz
RH
25 25 27 24 19 21 17 23 24 19 16 12 13 9 4 3 2 2 1 1 1 1 1 1 2 2 3 3 4 5 7 9 9 9 10 12 12 13 16 32 51 71 72 84 94 71 77
28 29 28 22 23 22 18 26 22 18 17 13 15 8 4 2 2 2 2 1 1 1 1 1 1 2 3 3 3 4 6 8 10 8 9 11 12 13 12 14 26 66 86 82 92 94 97
28 26 24 24 28 22 23 26 27 21 20 17 15 9 5 3 2 2 2 2 2 1 1 1 1 2 3 3 3 4 6 8 8 8 9 10 13 14 13 12 14 34 72 99 92 96 100
29 26 25 31 28 21 27 28 28 27 31 21 19 14 7 4 4 3 2 2 2 2 2 1 1 2 3 4 3 4 6 7 8 11 10 10 13 16 16 13 14 15 44 75 94 100 100
33 28 28 35 31 25 29 32 32 33 38 25 23 20 11 6 5 3 2 2 2 2 2 2 1 2 3 4 4 4 6 8 9 11 10 10 11 15 17 14 15 14 17 57 86 100 100
36 33 34 33 32 28 32 37 38 41 46 27 26 25 14 11 9 5 3 2 2 2 2 2 2 2 4 4 4 5 6 8 11 12 11 11 11 15 17 16 14 16 19 44 86 100 100
45 39 36 37 33 30 36 46 44 46 51 32 29 36 19 14 14 9 5 3 3 3 2 2 2 2 4 7 5 5 6 9 10 11 12 11 11 14 18 17 16 20 28 58 86 100 95
50 41 37 38 32 32 41 47 52 57 55 36 29 41 27 17 14 15 9 4 4 3 3 3 3 3 6 8 6 6 7 8 9 10 11 10 12 14 18 18 19 20 22 50 83 98 100
52 44 38 37 32 33 41 44 57 70 59 37 29 40 30 25 21 16 12 7 6 5 5 5 4 4 6 8 8 6 7 8 8 10 11 13 12 13 16 17 19 23 27 38 66 87 100
68 56 41 39 34 33 44 44 62 72 64 39 30 40 37 25 22 22 18 11 8 10 10 10 8 10 10 9 8 8 7 9 9 10 13 15 15 14 14 15 19 28 31 28 57 76 96
73 68 47 40 35 38 44 52 66 72 68 44 34 41 45 34 23 20 22 17 9 12 18 17 13 10 10 9 9 8 8 10 11 10 13 16 18 15 15 17 20 30 33 31 34 60 82
74 72 50 41 36 46 42 56 70 81 82 53 38 38 44 43 29 20 23 22 16 10 22 19 15 14 11 10 9 10 9 10 10 9 12 18 19 18 17 18 19 24 28 29 28 42 61
79 65 48 41 36 52 44 56 70 86 90 66 48 37 42 44 41 26 19 24 17 12 16 18 17 16 14 13 13 11 11 12 12 14 13 18 20 22 21 18 17 20 26 25 23 26 43
67 58 51 41 39 48 46 49 71 89 90 80 59 42 38 45 41 41 23 16 14 16 12 12 24 19 17 16 14 15 16 15 16 18 20 20 18 17 20 21 19 18 22 24 25 28 43
55 56 56 44 47 42 45 48 66 89 91 91 75 46 38 44 46 40 39 18 15 12 12 11 18 23 19 18 17 16 18 17 18 18 20 20 20 23 22 21 19 19 19 24 27 35 45
65 66 70 47 48 38 41 46 58 78 94 95 91 70 46 40 47 44 37 38 24 13 10 12 15 26 28 20 17 17 18 18 18 18 17 19 20 21 24 23 20 19 20 24 28 37 37
96 83 66 38 45 37 37 40 53 68 87 94 100 85 57 50 45 49 42 36 35 28 18 12 11 12 18 36 24 16 12 13 16 16 16 19 20 21 20 20 20 18 20 22 28 35 39
81 81 56 37 43 35 32 36 40 50 73 85 100 96 82 49 49 44 48 46 36 32 32 20 14 11 8 7 17 37 24 20 14 12 11 13 16 19 23 22 21 21 20 20 26 30 32
82 94 51 34 47 37 29 37 39 40 49 70 97 100 89 76 49 47 37 43 44 34 30 30 22 12 10 9 8 11 23 24 19 15 13 12 13 16 19 21 22 22 23 24 25 28 28
78 82 70 39 48 38 30 37 37 34 42 46 67 95 98 91 62 56 47 38 40 45 37 32 30 29 20 13 11 14 21 27 24 14 13 12 11 12 18 23 24 24 24 24 26 29 27
88 68 90 50 47 46 36 32 39 34 37 35 37 69 89 100 86 50 58 50 52 44 43 41 35 32 30 31 28 18 14 13 13 12 12 11 13 12 11 17 20 21 22 23 24 25 25
100 74 76 86 51 54 43 36 39 37 35 32 28 32 50 86 97 91 67 52 57 54 51 38 44 42 38 37 32 29 30 24 18 13 14 18 15 17 18 17 20 23 24 25 25 26 25
100 84 72 96 58 47 57 42 37 35 37 31 27 24 26 39 68 96 98 71 46 59 62 51 50 41 43 47 45 43 38 32 28 27 24 22 22 23 24 24 25 26 27 28 30 30 31
100 88 78 83 99 48 57 47 43 41 37 34 29 25 24 26 30 50 78 80 86 65 52 59 54 49 46 44 40 41 43 43 42 39 35 33 32 32 31 30 30 32 33 34 34 36 36
100 96 80 78 98 74 51 58 47 47 40 38 31 27 24 26 27 28 39 56 76 80 68 62 54 55 50 48 44 49 45 38 40 41 42 44 46 45 42 39 38 37 39 41 44 46 49
100 100 78 89 89 100 62 67 58 51 47 42 34 31 27 26 26 30 27 30 38 44 66 82 68 62 45 44 42 42 51 44 47 56 56 48 44 40 39 40 39 40 40 40 41 40 40
99 100 87 75 93 100 97 74 68 59 53 48 41 38 35 27 26 26 30 25 30 38 35 37 46 54 40 41 38 40 41 41 45 42 40 39 42 43 43 40 36 34 35 37 37 36 39
87 100 94 82 89 98 100 99 76 69 63 58 51 44 42 37 26 26 27 26 26 31 42 53 42 50 64 44 41 41 41 35 32 37 36 37 37 42 36 33 32 36 37 39 42 41 39
87 98 98 82 79 89 100 100 97 77 79 70 64 54 51 48 37 28 29 27 26 29 37 32 46 51 60 48 64 57 45 37 36 38 41 45 76 67 44 43 37 37 33 34 33 34 36

GFSGBSN_250_rhum_141.txt.gz
RH
38 32 30 25 24 23 22 20 16 16 24 22 17 14 13 12 6 4 3 2 2 1 1 1 1 1 2 2 3 2 4 5 6 8 9 9 10 18 24 41 58 68 56 61 62 61 66
34 33 28 26 23 23 25 21 17 22 28 22 18 14 18 11 8 5 3 2 2 1 1 1 1 1 1 2 3 3 3 4 7 10 9 10 10 12 20 27 44 59 68 64 70 67 84
36 32 31 29 25 27 26 22 21 29 27 21 20 22 28 13 8 6 4 2 2 2 1 1 1 1 1 2 2 3 3 4 8 11 10 12 11 11 16 19 32 38 52 67 67 78 80
40 33 32 28 29 33 27 25 25 33 27 24 22 28 34 19 9 6 5 2 2 2 2 2 2 1 1 2 2 3 3 4 7 10 10 12 11 11 13 18 22 30 32 47 59 69 78
41 36 35 33 33 32 27 28 28 35 27 29 26 31 36 27 11 8 7 4 3 2 2 2 2 2 2 1 2 3 3 5 7 8 8 10 10 11 12 16 19 22 25 24 34 50 80
51 43 40 39 36 35 28 29 31 36 28 32 30 32 37 28 15 10 9 6 3 3 2 2 2 2 2 2 2 3 4 5 6 8 7 8 9 10 11 14 17 18 18 18 17 26 57
56 54 49 48 42 38 30 32 41 37 30 36 33 34 36 33 17 12 11 6 7 4 3 2 2 2 2 2 3 4 4 5 7 7 8 10 12 12 12 14 18 18 17 16 16 18 24
68 67 57 55 46 39 30 33 45 36 37 46 37 35 38 37 21 13 12 9 8 6 4 3 3 2 2 2 4 6 6 6 7 8 8 9 10 12 12 13 18 20 17 17 18 19 22
80 68 66 56 47 37 32 40 45 37 43 53 42 36 41 40 28 12 13 11 7 11 6 5 4 3 3 6 7 6 5 5 6 8 8 11 13 11 11 13 18 23 20 18 17 20 22
80 72 76 62 53 43 34 50 44 40 49 58 49 37 42 45 34 15 11 14 10 13 9 11 10 6 6 9 8 6 6 6 6 8 10 14 15 14 14 13 17 22 24 21 19 19 20
60 78 76 65 55 42 36 56 46 46 58 65 58 40 43 48 42 23 11 14 12 16 15 15 13 11 8 11 9 7 6 6 6 8 9 11 15 16 15 17 19 22 24 24 21 20 20
55 72 77 65 53 42 38 57 44 47 62 67 65 47 42 46 48 35 18 11 12 9 22 17 14 12 11 10 11 8 6 6 8 9 8 12 12 14 15 16 20 21 23 23 21 20 19
76 61 65 64 50 43 42 57 43 46 65 66 76 50 37 43 48 42 31 12 9 9 21 22 17 13 11 10 10 8 8 7 9 10 11 12 15 15 15 15 16 18 20 22 20 18 17
78 62 55 55 48 40 44 50 44 48 69 69 84 53 48 36 46 46 35 17 11 10 19 30 21 16 13 10 11 10 8 8 8 12 14 15 16 17 17 17 17 18 18 21 20 18 18
82 62 48 57 54 38 43 42 42 49 69 68 85 62 53 35 41 46 39 24 13 13 13 18 29 23 17 13 11 11 10 9 10 12 15 16 18 21 22 20 18 19 19 19 19 19 24
91 73 62 63 58 36 39 39 39 46 57 72 73 75 56 44 39 47 40 38 21 14 13 13 15 23 26 19 14 12 11 12 12 13 17 18 20 22 24 22 20 20 20 19 20 21 19
100 80 88 76 50 33 39 33 37 39 46 66 71 74 51 53 45 40 46 40 36 18 13 10 8 12 20 25 26 15 14 12 14 15 16 18 18 23 23 24 22 21 20 19 21 22 23
100 91 83 74 50 32 38 31 37 36 39 50 76 71 55 58 46 43 41 46 38 32 20 18 11 8 8 15 21 25 22 18 16 15 16 18 18 20 24 23 21 20 21 22 22 22 22
100 100 84 80 44 33 40 33 39 35 35 36 64 68 69 54 57 52 41 43 48 39 32 23 19 16 10 10 17 18 21 20 20 20 18 16 18 19 20 20 21 21 21 24 22 21 22
92 100 87 77 73 34 46 32 38 37 34 31 34 64 70 57 47 57 56 42 42 47 42 34 27 18 20 19 17 22 20 19 19 19 20 22 20 20 23 25 22 22 24 25 23 22 24
50 100 95 80 78 46 49 37 33 43 34 33 27 36 59 70 56 46 57 55 49 40 42 45 37 30 21 15 16 15 14 13 14 13 14 17 19 21 23 22 22 22 22 23 24 23 22
65 58 100 80 73 64 48 46 37 41 36 35 29 27 35 54 69 52 48 57 63 58 50 40 43 42 34 28 19 16 13 11 11 11 12 14 17 20 20 21 23 22 22 23 24 24 26
83 59 99 80 75 80 51 55 45 39 36 34 31 27 27 29 40 56 54 40 57 59 61 55 47 39 43 40 31 28 26 25 18 14 13 14 14 15 20 22 25 26 27 26 25 24 23
76 77 97 100 85 76 79 50 61 42 40 35 28 28 27 28 28 34 46 42 38 51 60 59 61 56 40 42 42 41 36 32 27 24 21 19 17 17 18 22 24 25 27 28 27 27 30
80 86 93 100 100 76 92 62 52 57 43 40 33 29 28 27 29 28 31 37 38 35 41 40 42 53 59 46 43 42 42 42 40 37 32 28 25 22 22 22 24 27 28 31 34 35 37
96 79 100 100 100 94 85 84 48 63 50 45 40 31 30 28 26 28 25 30 35 32 36 35 35 37 38 44 57 43 38 37 40 40 40 39 36 34 30 28 28 28 30 31 33 35 36
100 92 100 96 100 96 86 99 75 56 70 53 46 38 35 32 28 26 29 28 32 31 36 46 42 36 39 38 35 39 49 46 40 36 36 35 35 37 38 38 39 39 39 41 41 43 42
96 91 100 95 90 95 97 96 100 85 69 69 57 48 38 38 29 27 26 26 28 35 41 46 52 48 44 39 32 29 33 36 40 41 43 36 35 36 35 36 34 37 39 41 40 42 38
100 90 100 95 81 90 87 94 100 100 87 76 66 56 49 44 39 30 29 28 27 27 38 36 35 49 38 28 33 34 32 30 36 40 49 46 34 36 44 46 47 44 39 34 36 34 36

GFSGBSN_250_rhum_147.txt.gz
RH
64 61 55 49 50 50 48 46 41 39 33 29 26 21 16 18 18 16 15 12 12 16 8 3 3 2 2 1 1 1 1 1 2 3 4 5 8 9 10 11 13 16 19 24 34 44 49
59 62 59 56 54 48 46 48 49 43 34 31 26 20 27 24 20 16 13 12 17 14 4 3 2 2 1 1 1 1 1 1 1 2 3 5 9 8 11 11 11 13 15 22 24 30 51
56 56 55 56 56 56 50 48 49 42 40 33 32 37 28 25 18 16 13 18 17 7 4 3 2 2 2 1 1 1 1 1 1 2 3 4 7 7 9 11 12 12 13 16 22 21 31
81 71 60 54 54 55 54 52 49 45 44 43 46 35 29 22 17 14 15 20 15 6 4 4 4 3 2 2 1 1 1 1 1 2 2 3 5 6 8 10 12 13 13 13 20 23 25
87 99 94 71 60 60 61 58 53 52 56 48 44 31 30 20 16 16 22 21 10 6 4 7 6 3 2 2 2 1 1 1 1 2 2 3 4 5 7 10 12 13 13 13 15 22 25
83 85 98 96 74 63 64 60 59 63 60 48 36 34 29 20 17 19 26 23 8 6 5 9 8 4 2 2 2 2 2 2 2 2 2 3 4 4 6 8 10 13 15 14 14 20 22
52 59 93 100 77 57 54 64 70 70 55 46 37 36 27 21 20 22 29 24 9 6 8 11 9 5 2 2 2 2 2 2 2 2 3 3 3 3 5 9 12 14 15 16 15 16 21
42 45 89 98 88 65 50 52 62 61 46 41 41 36 28 22 22 22 31 25 9 8 14 14 11 6 2 2 2 2 2 2 3 3 4 3 4 3 4 8 12 15 15 17 17 18 21
49 45 52 78 87 75 63 59 52 59 50 41 43 35 31 24 24 24 32 26 13 7 16 14 12 9 4 2 2 2 2 2 3 4 4 4 4 4 4 7 11 14 15 16 20 18 22
63 59 59 75 89 78 63 65 54 50 46 42 40 35 32 28 28 26 34 28 17 8 14 16 12 11 8 6 3 3 2 3 4 5 4 4 4 4 5 8 11 14 15 17 19 18 25
53 65 63 65 88 94 60 57 45 47 40 41 38 36 35 31 29 26 32 33 22 12 9 16 13 11 14 11 8 3 3 3 4 5 4 4 4 4 5 8 11 14 16 17 18 17 25
56 75 80 58 72 99 58 56 41 41 39 42 37 37 37 32 33 27 31 35 24 14 6 18 13 12 13 13 11 9 4 3 4 5 6 5 5 5 5 8 11 15 16 17 17 16 21
59 62 92 66 70 94 61 52 51 41 41 43 37 37 36 35 35 30 31 36 30 16 12 11 15 14 12 14 13 10 9 7 5 5 6 7 6 6 6 8 10 16 17 16 15 15 18
86 56 96 80 90 100 64 56 59 44 42 44 36 37 34 35 37 33 31 36 33 18 13 8 15 17 12 13 13 10 8 8 8 6 6 8 10 9 8 9 11 15 18 16 14 14 19
91 67 66 89 100 98 74 64 65 46 40 44 34 34 32 36 38 34 33 33 36 22 14 14 13 15 14 12 14 10 8 7 8 10 9 7 10 13 10 11 12 14 19 16 17 19 25
86 58 71 96 89 89 77 68 68 52 37 42 32 29 30 37 38 34 38 34 38 29 21 15 17 17 16 14 12 13 10 9 8 11 11 9 10 13 12 13 13 15 18 18 17 17 19
84 76 80 96 95 87 78 66 73 46 36 42 32 28 29 35 38 36 37 41 36 38 24 20 17 21 19 18 14 11 10 11 10 8 9 13 11 10 13 14 16 16 16 17 18 17 20
87 80 74 74 94 92 88 73 75 51 38 43 35 29 28 33 35 37 40 42 38 41 35 25 21 15 22 22 19 14 10 10 9 10 9 8 10 10 10 14 17 18 19 18 18 18 22
100 67 60 77 94 93 99 88 74 66 40 44 41 29 29 26 27 30 34 39 48 37 43 33 26 20 14 16 21 20 15 12 10 11 10 8 9 10 11 12 14 18 19 19 19 20 22
75 95 55 68 94 95 100 94 70 67 47 44 43 34 29 28 29 27 30 29 44 50 37 44 34 27 18 13 13 17 19 15 12 10 12 11 10 11 12 15 14 16 18 21 22 21 22
70 72 75 76 100 100 100 98 68 65 65 48 40 40 29 29 30 26 31 31 34 45 51 38 44 35 28 21 13 13 15 17 15 12 10 12 12 12 14 15 15 17 19 20 22 23 23
50 52 61 88 100 100 99 91 89 65 64 56 43 42 28 29 32 30 28 31 36 37 43 46 40 43 35 28 21 15 12 13 16 15 14 12 12 14 15 17 18 18 18 21 21 24 25
59 52 51 80 100 100 93 100 97 89 63 66 53 42 34 29 31 32 28 30 34 36 35 40 44 43 43 39 31 21 16 15 14 15 16 15 15 14 15 18 19 22 24 25 24 25 25
55 50 48 63 82 85 96 100 98 92 72 62 64 47 43 29 30 30 28 28 31 33 30 30 37 46 42 41 41 35 26 19 17 16 16 17 17 16 16 18 20 20 24 27 29 26 25
51 50 70 53 73 74 92 100 87 81 81 68 70 63 44 37 30 29 30 27 29 33 32 28 30 36 43 40 40 40 39 30 25 23 20 16 17 18 17 16 17 20 23 28 29 28 29
61 93 77 58 64 62 95 97 88 82 80 92 74 73 59 48 34 30 26 28 29 30 36 33 29 30 38 44 40 39 38 39 34 28 26 22 20 18 18 19 19 20 22 25 27 30 33
80 98 100 80 69 69 82 94 96 86 63 79 85 87 62 55 44 34 29 25 26 27 31 30 28 26 28 34 45 40 35 34 37 38 32 26 25 22 21 20 22 24 25 26 29 32 33
94 100 98 99 77 73 70 82 100 93 76 60 81 81 89 62 50 35 34 28 26 28 28 27 28 26 25 27 30 33 31 37 31 31 35 37 33 27 24 24 24 24 26 27 32 35 35
100 100 100 99 100 82 81 76 100 98 91 66 66 77 96 78 61 50 37 35 27 28 29 28 26 26 25 27 27 27 27 28 28 31 31 28 30 33 34 35 32 30 29 29 30 31 33